Weather in Ovgort

Russia / Yamalo-Nenets Autonomous Okrug     64°49′43″N   63°58′17″E
temp.,
°C
wind,
m/s
gust,
m/s
humid.,
%
clouds,
%
prec.,
mm/h
press.,
hPa
HPBL,
m
27 february, sat
sat2723:00−20ssw3494100 0.0 102257
02:00−20ssw3395100 0.0 102254
05:00−21s339596 0.0 102240
08:00−21s3395100 0.0 102249
11:00−19ssw369294 0.0 1022276
14:00−17ssw458789 0.0 1022412
17:00−18s339386 0.0 102237
20:00−23s34980 0.0 102233
28 february, sun
sun2823:00−24ssw34970 0.0 102238
02:00−26ssw34980 0.0 102129
05:00−27s34975 0.0 102132
08:00−28ssw34967 0.0 102134
11:00−24ssw469315 0.0 1021249
14:00−20ssw468869 0.0 1020343
17:00−22s339262 0.0 102052
20:00−25s449681 0.0 102037
1 march, mon
mon123:00−27ssw349767 0.0 102030
02:00−27ssw349877 0.0 101930
05:00−27ssw349876 0.0 101932
08:00−27s349879 0.0 101841
11:00−22ssw589583 0.0 1017307
14:00−18ssw599198 0.0 1015429
17:00−17ssw5109199 0.0 1013276
20:00−19s6119489 0.0 1011199
2 march, tue
tue223:00−18ssw7139292 0.0 1009284
02:00−17s7149198 0.0 1006306
05:00−17s7148999 0.0 1005339
08:00−17ssw81489100 0.0 1003378
11:00−16s81388100 0.0 1003426
14:00−14s71288100 0.0 1002491
17:00−13s71289100 0.1 1002526
20:00−13s61392100 0.1 1001528
3 march, wed
wed323:00−13s61292100 0.4 1001546
02:00−13s61193100 0.3 1000471
05:00−13s61194100 0.8 1000449
08:00−13s51094100 0.5 1000414
11:00−13s6992100 0.9 1000467
14:00−12s6892100 0.4 1000498
17:00−12s5892100 0.6 1000460
20:00−13s489395 0.1 1000202